This is the latest recevied weather packets stored in our database for station/object KC3SOZ. If no packets are shown the sender has not sent any weather packets the latest 10 day(s).
| Time | Temp. | Humidity | Pressure | Rain* | Wind** | Luminosity | Snow |
|---|---|---|---|---|---|---|---|
| 1777839959 | 15° C | 40% | 1012.8 hPa | 0 mm | - | 548 W/m² | - |
| 1777839657 | 15° C | 42% | 1013.1 hPa | 0 mm | - | 608 W/m² | - |
| 1777839355 | 15° C | 41% | 1013 hPa | 0 mm | - | 208 W/m² | - |
| 1777839052 | 14.44° C | 45% | 1013 hPa | 0 mm | - | 256 W/m² | - |
| 1777838748 | 15.56° C | 40% | 1013.2 hPa | 0 mm | - | 329 W/m² | - |
| 1777838445 | 15.56° C | 43% | 1013.3 hPa | 0 mm | - | 710 W/m² | - |
| 1777838142 | 15° C | 39% | 1013.1 hPa | 0 mm | - | 337 W/m² | - |
| 1777837839 | 15° C | 39% | 1013.3 hPa | 0 mm | - | 688 W/m² | - |
| 1777837536 | 14.44° C | 41% | 1013.3 hPa | 0 mm | - | 456 W/m² | - |
| 1777837235 | 14.44° C | 41% | 1013.4 hPa | 0 mm | - | 298 W/m² | - |
| 1777836933 | 14.44° C | 46% | 1013.3 hPa | 0 mm | - | 244 W/m² | - |
| 1777836628 | 15° C | 41% | 1013.5 hPa | 0 mm | - | 555 W/m² | - |
| 1777836324 | 14.44° C | 44% | 1013.7 hPa | 0 mm | - | 770 W/m² | - |
| 1777836020 | 15° C | 42% | 1013.7 hPa | 0 mm | - | 530 W/m² | - |
| 1777835717 | 14.44° C | 44% | 1013.8 hPa | 0 mm | - | 819 W/m² | - |
| 1777835414 | 13.33° C | 42% | 1014 hPa | 0 mm | - | 897 W/m² | - |
| 1777835111 | 13.33° C | 43% | 1014 hPa | 0 mm | - | 293 W/m² | - |
| 1777834809 | 14.44° C | 42% | 1013.9 hPa | 0 mm | - | 422 W/m² | - |
| 1777834504 | 12.78° C | 44% | 1014.1 hPa | 0 mm | - | 924 W/m² | - |
| 1777834204 | 13.33° C | 41% | 1014.2 hPa | 0 mm | - | 267 W/m² | - |
| 1777833900 | 13.89° C | 41% | 1014.3 hPa | 0 mm | - | 817 W/m² | - |
| 1777833597 | 13.33° C | 43% | 1014.3 hPa | 0 mm | - | 585 W/m² | - |
| 1777833293 | 13.89° C | 44% | 1014.2 hPa | 0 mm | - | 249 W/m² | - |
| 1777832990 | 13.89° C | 41% | 1014.2 hPa | 0 mm | - | 869 W/m² | - |
| 1777832690 | 13.33° C | 40% | 1014.2 hPa | 0 mm | - | 841 W/m² | - |
* Rain latest hour (hover to see other rain measurements)
** Current wind speed in m/s (hover to see current wind gust speed)